,,Stat6,,Stat2,,Stat8,,Stat9,,Stat10,,Wind1,,Wind1,
time,status,PA1M_AVG,status,PR1M_SUM,status,RH1M_AVG,status,SR1M_AVG,status,TA1M_AVG,status,W1dAve1m,status,W1sAve1m,
2005-04-04, 00:00:00,VALID,919.585,VALID,0,VALID,96.7259,VALID,0,VALID,20.123,VALID,117,VALID,0.577195,
2005-04-04, 00:01:00,VALID,919.549,VALID,0,VALID,96.7004,VALID,0,VALID,20.1262,VALID,140,VALID,0.755208,
2005-04-04, 00:02:00,VALID,919.53,VALID,0,VALID,96.5771,VALID,0,VALID,20.1426,VALID,137,VALID,0.931868,
2005-04-04, 00:03:00,VALID,919.511,VALID,0,VALID,96.3953,VALID,0,VALID,20.1622,VALID,132,VALID,1.04185,
2005-04-04, 00:04:00,VALID,919.515,VALID,0,VALID,96.015,VALID,0,VALID,20.1749,VALID,132,VALID,0.928544,
2005-04-04, 00:05:00,VALID,919.495,VALID,0,VALID,95.5878,VALID,-0.0169808,VALID,20.2005,VALID,128,VALID,0.827524,
2005-04-04, 00:06:00,VALID,919.498,VALID,0,VALID,95.1949,VALID,0,VALID,20.2562,VALID,120,VALID,0.860224,
2005-04-04, 00:07:00,VALID,919.482,VALID,0,VALID,94.5616,VALID,0,VALID,20.2817,VALID,116,VALID,1.07946,
2005-04-04, 00:08:00,VALID,919.473,VALID,0,VALID,94.4713,VALID,-0.0339617,VALID,20.3133,VALID,116,VALID,0.830171,
2005-04-04, 00:09:00,VALID,919.442,VALID,0,VALID,94.5069,VALID,0,VALID,20.3364,VALID,114,VALID,1.07106,
2005-04-04, 00:10:00,VALID,919.415,VALID,0,VALID,94.7384,VALID,0.0169808,VALID,20.3423,VALID,114,VALID,1.14371,
2005-04-04, 00:11:00,VALID,919.382,VALID,0,VALID,95.0385,VALID,-0.0169808,VALID,20.3555,VALID,105,VALID,1.10084,
2005-04-04, 00:12:00,VALID,919.342,VALID,0,VALID,95.2508,VALID,-0.0169808,VALID,20.3558,VALID,107,VALID,1.01486,
2005-04-04, 00:13:00,VALID,919.325,VALID,0,VALID,95.2851,VALID,0,VALID,20.3326,VALID,106,VALID,1.14996,
2005-04-04, 00:14:00,VALID,919.295,VALID,0,VALID,95.1872,VALID,0,VALID,20.3299,VALID,106,VALID,1.22042,
2005-04-04, 00:15:00,VALID,919.268,VALID,0,VALID,95.0232,VALID,-0.0169808,VALID,20.3302,VALID,106,VALID,0.985828,
2005-04-04, 00:16:00,VALID,919.261,VALID,0,VALID,94.6328,VALID,0,VALID,20.3167,VALID,112,VALID,1.20827,
2005-04-04, 00:17:00,VALID,919.233,VALID,0,VALID,94.5018,VALID,0,VALID,20.3103,VALID,108,VALID,1.12214,
2005-04-04, 00:18:00,VALID,919.209,VALID,0,VALID,94.4395,VALID,0,VALID,20.314,VALID,98,VALID,1.07608,
2005-04-04, 00:19:00,VALID,919.193,VALID,0,VALID,94.4179,VALID,-0.0169808,VALID,20.324,VALID,108,VALID,0.75332,
2005-04-04, 00:20:00,VALID,919.179,VALID,0,VALID,94.3938,VALID,-0.0339617,VALID,20.3103,VALID,106,VALID,0.757813,
2005-04-04, 00:21:00,VALID,919.166,VALID,0,VALID,94.4917,VALID,0,VALID,20.3041,VALID,111,VALID,0.606957,
2005-04-04, 00:22:00,VALID,919.152,VALID,0,VALID,94.6048,VALID,0,VALID,20.3006,VALID,110,VALID,0.59375,
2005-04-04, 00:23:00,VALID,919.154,VALID,0,VALID,94.7562,VALID,0.0169808,VALID,20.2839,VALID,107,VALID,0.584722,
2005-04-04, 00:24:00,VALID,919.154,VALID,0,VALID,94.779,VALID,0,VALID,20.2807,VALID,105,VALID,0.446671,
2005-04-04, 00:25:00,VALID,919.14,VALID,0,VALID,94.7117,VALID,0,VALID,20.2812,VALID,106,VALID,0.389358,
2005-04-04, 00:26:00,VALID,919.139,VALID,0,VALID,94.718,VALID,0,VALID,20.2812,VALID,106,VALID,0,
2005-04-04, 00:27:00,VALID,919.131,VALID,0,VALID,94.7511,VALID,-0.0679233,VALID,20.2842,VALID,50,VALID,0.359003,
2005-04-04, 00:28:00,VALID,919.129,VALID,0,VALID,94.6125,VALID,0,VALID,20.2877,VALID,40,VALID,0.406068,
2005-04-04, 00:29:00,VALID,919.116,VALID,0,VALID,94.5095,VALID,0.0339617,VALID,20.2646,VALID,19,VALID,0.521875,
2005-04-04, 00:30:00,VALID,919.102,VALID,0,VALID,94.1865,VALID,0,VALID,20.2524,VALID,14,VALID,0.450076,
2005-04-04, 00:31:00,VALID,919.086,VALID,0,VALID,93.8609,VALID,0,VALID,20.2199,VALID,10,VALID,0.456597,
2005-04-04, 00:32:00,VALID,919.063,VALID,0,VALID,93.8101,VALID,0,VALID,20.2228,VALID,8,VALID,0.539583,
2005-04-04, 00:33:00,VALID,919.051,VALID,0,VALID,93.749,VALID,-0.0169808,VALID,20.2325,VALID,8,VALID,0.382631,
2005-04-04, 00:34:00,VALID,919.037,VALID,0,VALID,93.5609,VALID,-0.0169808,VALID,20.2492,VALID,8,VALID,0.316592,
2005-04-04, 00:35:00,VALID,919.011,VALID,0,VALID,93.3816,VALID,-0.0169808,VALID,20.2293,VALID,8,VALID,0.437682,
2005-04-04, 00:36:00,VALID,918.999,VALID,0,VALID,93.5672,VALID,0,VALID,20.2363,VALID,8,VALID,0.408975,
2005-04-04, 00:37:00,VALID,918.99,VALID,0,VALID,93.7948,VALID,0,VALID,20.2233,VALID,9,VALID,0.487216,
2005-04-04, 00:38:00,VALID,918.974,VALID,0,VALID,94.0097,VALID,0.0339617,VALID,20.165,VALID,27,VALID,0.795455,
2005-04-04, 00:39:00,VALID,918.965,VALID,0,VALID,94.3124,VALID,0,VALID,20.1096,VALID,30,VALID,0.781994,
2005-04-04, 00:40:00,VALID,918.956,VALID,0,VALID,94.4942,VALID,0,VALID,20.0882,VALID,40,VALID,0.739524,
2005-04-04, 00:41:00,VALID,918.944,VALID,0,VALID,94.629,VALID,0.0169808,VALID,20.0482,VALID,40,VALID,0.62843,
2005-04-04, 00:42:00,VALID,918.926,VALID,0,VALID,94.8185,VALID,0,VALID,20.0167,VALID,40,VALID,0.511186,
2005-04-04, 00:43:00,VALID,918.902,VALID,0,VALID,94.966,VALID,0,VALID,19.9908,VALID,40,VALID,0.336124,
2005-04-04, 00:44:00,VALID,918.881,VALID,0,VALID,94.9164,VALID,0.0509425,VALID,19.9906,VALID,40,VALID,0.365278,
2005-04-04, 00:45:00,VALID,918.867,VALID,0,VALID,95.0626,VALID,0.0169808,VALID,19.9581,VALID,40,VALID,0.40625,
2005-04-04, 00:46:00,VALID,918.827,VALID,0,VALID,94.924,VALID,0.0169808,VALID,19.932,VALID,70,VALID,0.54581,
2005-04-04, 00:47:00,VALID,918.811,VALID,0,VALID,94.5285,VALID,0.0339617,VALID,19.9191,VALID,71,VALID,0.69809,
2005-04-04, 00:48:00,VALID,918.801,VALID,0,VALID,94.4904,VALID,0,VALID,19.9422,VALID,71,VALID,0.761161,
2005-04-04, 00:49:00,VALID,918.788,VALID,0,VALID,93.9118,VALID,0.0339617,VALID,19.9481,VALID,71,VALID,0.774891,
2005-04-04, 00:50:00,VALID,918.779,VALID,0,VALID,94.3925,VALID,0.0339617,VALID,19.9707,VALID,70,VALID,0.610305,
2005-04-04, 00:51:00,VALID,918.767,VALID,0,VALID,94.7078,VALID,0.0339617,VALID,19.9354,VALID,65,VALID,0.82337,
2005-04-04, 00:52:00,VALID,918.758,VALID,0,VALID,94.9164,VALID,0,VALID,19.8674,VALID,60,VALID,0.904474,
2005-04-04, 00:53:00,VALID,918.762,VALID,0,VALID,94.8973,VALID,0.0339617,VALID,19.8026,VALID,60,VALID,1.03716,
2005-04-04, 00:54:00,VALID,918.752,VALID,0,VALID,94.4332,VALID,0.0509425,VALID,19.7666,VALID,58,VALID,1.08061,
2005-04-04, 00:55:00,VALID,918.746,VALID,0,VALID,93.5443,VALID,0.0679233,VALID,19.7832,VALID,60,VALID,1.00962,
2005-04-04, 00:56:00,VALID,918.746,VALID,0,VALID,92.6339,VALID,0.0679233,VALID,19.8254,VALID,70,VALID,1.03889,
2005-04-04, 00:57:00,VALID,918.726,VALID,0,VALID,91.6573,VALID,0.0509425,VALID,19.8448,VALID,79,VALID,0.976944,
2005-04-04, 00:58:00,VALID,918.731,VALID,0,VALID,90.9235,VALID,0.0849042,VALID,19.8609,VALID,89,VALID,1.0886,
2005-04-04, 00:59:00,VALID,918.729,VALID,0,VALID,90.9375,VALID,0.0509425,VALID,19.8701,VALID,88,VALID,1.00996,
2005-04-04, 01:00:00,VALID,918.723,VALID,0,VALID,90.8294,VALID,0.0679233,VALID,19.8741,VALID,101,VALID,1.19893,
2005-04-04, 01:01:00,VALID,918.707,VALID,0,VALID,90.8193,VALID,0.0679233,VALID,19.8612,VALID,112,VALID,1.14479,
2005-04-04, 01:02:00,VALID,918.671,VALID,0,VALID,91.2364,VALID,0.0339617,VALID,19.8547,VALID,117,VALID,0.903706,
2005-04-04, 01:03:00,VALID,918.625,VALID,0,VALID,91.6878,VALID,0.0339617,VALID,19.8349,VALID,121,VALID,0.861779,
2005-04-04, 01:04:00,VALID,918.597,VALID,0,VALID,92.157,VALID,-0.0339617,VALID,19.8227,VALID,122,VALID,0.888765,
2005-04-04, 01:05:00,VALID,918.553,VALID,0,VALID,93.0357,VALID,-0.0169808,VALID,19.8172,VALID,119,VALID,0.851376,
2005-04-04, 01:06:00,VALID,918.52,VALID,0,VALID,94.3391,VALID,-0.0509425,VALID,19.8304,VALID,129,VALID,1.02483,
2005-04-04, 01:07:00,VALID,918.472,VALID,0,VALID,94.9774,VALID,-0.0509425,VALID,19.8046,VALID,119,VALID,0.833705,
2005-04-04, 01:08:00,VALID,918.427,VALID,0,VALID,95.5153,VALID,-0.0509425,VALID,19.7688,VALID,125,VALID,0.637326,
2005-04-04, 01:09:00,VALID,918.398,VALID,0,VALID,96.01,VALID,-0.0339617,VALID,19.7397,VALID,131,VALID,0.608631,
2005-04-04, 01:10:00,VALID,918.362,VALID,0,VALID,96.4983,VALID,-0.0169808,VALID,19.7005,VALID,137,VALID,0.675223,
2005-04-04, 01:11:00,VALID,918.341,VALID,0,VALID,96.7475,VALID,-0.0509425,VALID,19.6948,VALID,142,VALID,0.645041,
2005-04-04, 01:12:00,VALID,918.325,VALID,0,VALID,96.806,VALID,-0.0509425,VALID,19.6588,VALID,161,VALID,0.812137,
2005-04-04, 01:13:00,VALID,918.314,VALID,0,VALID,96.9319,VALID,-0.0849042,VALID,19.6456,VALID,144,VALID,0.514096,
2005-04-04, 01:14:00,VALID,918.289,VALID,0,VALID,96.7933,VALID,-0.101885,VALID,19.6297,VALID,144,VALID,0.403011,
2005-04-04, 01:15:00,VALID,918.268,VALID,0,VALID,96.5974,VALID,-0.101885,VALID,19.6369,VALID,145,VALID,0.24442,
2005-04-04, 01:16:00,VALID,918.244,VALID,0,VALID,96.4627,VALID,-0.0849042,VALID,19.6364,VALID,146,VALID,0.220655,
2005-04-04, 01:17:00,VALID,918.21,VALID,0,VALID,96.3825,VALID,-0.0849042,VALID,19.6662,VALID,146,VALID,0,
2005-04-04, 01:18:00,VALID,918.189,VALID,0,VALID,96.1943,VALID,-0.0509425,VALID,19.6622,VALID,146,VALID,0.0119048,
2005-04-04, 01:19:00,VALID,918.171,VALID,0,VALID,96.1308,VALID,-0.0339617,VALID,19.6843,VALID,146,VALID,0.204942,
2005-04-04, 01:20:00,VALID,918.151,VALID,0,VALID,95.94,VALID,0.0169808,VALID,19.6868,VALID,145,VALID,0.495046,
2005-04-04, 01:21:00,VALID,918.14,VALID,0,VALID,95.7658,VALID,0.0339617,VALID,19.6841,VALID,117,VALID,0.371289,
2005-04-04, 01:22:00,VALID,918.143,VALID,0,VALID,95.4924,VALID,0.0339617,VALID,19.6675,VALID,114,VALID,0.444041,
2005-04-04, 01:23:00,VALID,918.159,VALID,0,VALID,95.116,VALID,0.0169808,VALID,19.6483,VALID,114,VALID,0.443924,
2005-04-04, 01:24:00,VALID,918.158,VALID,0,VALID,95.2635,VALID,0.0509425,VALID,19.6416,VALID,113,VALID,0.517805,
2005-04-04, 01:25:00,VALID,918.175,VALID,0,VALID,95.6094,VALID,0.0679233,VALID,19.6384,VALID,101,VALID,0.56108,
2005-04-04, 01:26:00,VALID,918.194,VALID,0,VALID,95.5992,VALID,0.0509425,VALID,19.5997,VALID,79,VALID,0.762957,
2005-04-04, 01:27:00,VALID,918.207,VALID,0,VALID,95.8027,VALID,0.0169808,VALID,19.5639,VALID,76,VALID,0.770898,
2005-04-04, 01:28:00,VALID,918.222,VALID,0,VALID,95.1478,VALID,0.0509425,VALID,19.5383,VALID,79,VALID,0.915972,
2005-04-04, 01:29:00,VALID,918.23,VALID,0,VALID,94.952,VALID,0.0679233,VALID,19.5418,VALID,82,VALID,0.758903,
2005-04-04, 01:30:00,VALID,918.225,VALID,0,VALID,95.0626,VALID,0.101885,VALID,19.5477,VALID,83,VALID,0.58085,
2005-04-04, 01:31:00,VALID,918.236,VALID,0,VALID,94.9304,VALID,0.0509425,VALID,19.5316,VALID,80,VALID,0.641183,
2005-04-04, 01:32:00,VALID,918.238,VALID,0,VALID,94.0186,VALID,0.0169808,VALID,19.4996,VALID,80,VALID,0.669017,
2005-04-04, 01:33:00,VALID,918.259,VALID,0,VALID,93.8457,VALID,0.0169808,VALID,19.4958,VALID,82,VALID,0.581473,
2005-04-04, 01:34:00,VALID,918.279,VALID,0,VALID,93.7427,VALID,0.0169808,VALID,19.5102,VALID,82,VALID,0.567935,
2005-04-04, 01:35:00,VALID,918.314,VALID,0,VALID,93.8876,VALID,-0.0509425,VALID,19.5132,VALID,82,VALID,0.425967,
2005-04-04, 01:36:00,VALID,918.331,VALID,0,VALID,93.8826,VALID,-0.0509425,VALID,19.5234,VALID,82,VALID,0.527514,
2005-04-04, 01:37:00,VALID,918.348,VALID,0,VALID,94.1572,VALID,-0.0849042,VALID,19.5328,VALID,82,VALID,0.50372,
2005-04-04, 01:38:00,VALID,918.367,VALID,0,VALID,94.5667,VALID,-0.0679233,VALID,19.5557,VALID,74,VALID,0.590661,
2005-04-04, 01:39:00,VALID,918.39,VALID,0,VALID,94.6455,VALID,-0.0679233,VALID,19.5564,VALID,71,VALID,0.547965,
2005-04-04, 01:40:00,VALID,918.414,VALID,0,VALID,94.9927,VALID,-0.0679233,VALID,19.5333,VALID,35,VALID,0.753018,
2005-04-04, 01:41:00,VALID,918.43,VALID,0,VALID,94.9367,VALID,-0.0849042,VALID,19.5043,VALID,29,VALID,0.827762,
2005-04-04, 01:42:00,VALID,918.426,VALID,0,VALID,94.6303,VALID,-0.0679233,VALID,19.4529,VALID,23,VALID,0.839453,
2005-04-04, 01:43:00,VALID,918.441,VALID,0,VALID,94.4637,VALID,-0.101885,VALID,19.437,VALID,15,VALID,0.800391,
2005-04-04, 01:44:00,VALID,918.429,VALID,0,VALID,93.8622,VALID,-0.0849042,VALID,19.4466,VALID,14,VALID,0.771802,
2005-04-04, 01:45:00,VALID,918.433,VALID,0,VALID,93.9156,VALID,-0.0849042,VALID,19.4692,VALID,14,VALID,0.579427,
2005-04-04, 01:46:00,VALID,918.425,VALID,0,VALID,94.0695,VALID,-0.0849042,VALID,19.4918,VALID,14,VALID,0.597098,
2005-04-04, 01:47:00,VALID,918.429,VALID,0,VALID,94.4878,VALID,-0.0679233,VALID,19.4983,VALID,14,VALID,0.67702,
2005-04-04, 01:48:00,VALID,918.43,VALID,0,VALID,94.718,VALID,-0.0849042,VALID,19.4918,VALID,13,VALID,0.443638,
2005-04-04, 01:49:00,VALID,918.428,VALID,0,VALID,94.6697,VALID,-0.0339617,VALID,19.4817,VALID,13,VALID,0.445139,
2005-04-04, 01:50:00,VALID,918.424,VALID,0,VALID,94.8757,VALID,-0.0339617,VALID,19.4519,VALID,13,VALID,0.420541,
2005-04-04, 01:51:00,VALID,918.399,VALID,0,VALID,95.2572,VALID,0.0169808,VALID,19.4357,VALID,13,VALID,0.445858,
2005-04-04, 01:52:00,VALID,918.368,VALID,0,VALID,95.5293,VALID,0,VALID,19.4327,VALID,13,VALID,0.329055,
2005-04-04, 01:53:00,VALID,918.318,VALID,0,VALID,95.6641,VALID,-0.0339617,VALID,19.4521,VALID,13,VALID,0.30878,
2005-04-04, 01:54:00,VALID,918.258,VALID,0,VALID,95.7467,VALID,-0.0169808,VALID,19.4688,VALID,13,VALID,0.351744,
2005-04-04, 01:55:00,VALID,918.196,VALID,0,VALID,95.7455,VALID,-0.0169808,VALID,19.4588,VALID,13,VALID,0.238991,
2005-04-04, 01:56:00,VALID,918.111,VALID,0,VALID,95.8663,VALID,0,VALID,19.4611,VALID,13,VALID,0,
2005-04-04, 01:57:00,VALID,918.049,VALID,0,VALID,94.498,VALID,0.0169808,VALID,19.4717,VALID,20,VALID,0.304497,
2005-04-04, 01:58:00,VALID,917.971,VALID,0,VALID,91.8989,VALID,0,VALID,19.4549,VALID,44,VALID,0.469531,
2005-04-04, 01:59:00,VALID,917.914,VALID,0,VALID,89.9775,VALID,0.0169808,VALID,19.4971,VALID,61,VALID,0.532203,
2005-04-04, 02:00:00,VALID,917.877,VALID,0,VALID,89.7753,VALID,0,VALID,19.5875,VALID,75,VALID,0.38186,
2005-04-04, 02:01:00,VALID,917.834,VALID,0,VALID,89.8948,VALID,0,VALID,19.6714,VALID,75,VALID,0.233631,
2005-04-04, 02:02:00,VALID,917.814,VALID,0,VALID,88.5901,VALID,0,VALID,19.7263,VALID,82,VALID,0.541853,
2005-04-04, 02:03:00,VALID,917.799,VALID,0,VALID,87.7433,VALID,-0.0169808,VALID,19.7556,VALID,93,VALID,0.815163,
2005-04-04, 02:04:00,VALID,917.792,VALID,0,VALID,87.1583,VALID,0,VALID,19.7976,VALID,86,VALID,0.723796,
2005-04-04, 02:05:00,VALID,917.791,VALID,0,VALID,88.6067,VALID,0,VALID,19.8622,VALID,85,VALID,0.512091,
2005-04-04, 02:06:00,VALID,917.786,VALID,0,VALID,89.6939,VALID,0,VALID,19.8716,VALID,85,VALID,0.0706845,
2005-04-04, 02:07:00,VALID,917.773,VALID,0,VALID,90.4022,VALID,0,VALID,19.8753,VALID,85,VALID,0.18285,
2005-04-04, 02:08:00,VALID,917.76,VALID,0,VALID,91.2516,VALID,-0.0169808,VALID,19.8299,VALID,85,VALID,0.422619,
2005-04-04, 02:09:00,VALID,917.75,VALID,0,VALID,91.0939,VALID,0,VALID,19.7683,VALID,102,VALID,0.636541,
2005-04-04, 02:10:00,VALID,917.743,VALID,0,VALID,91.5059,VALID,0,VALID,19.701,VALID,116,VALID,0.543255,
2005-04-04, 02:11:00,VALID,917.764,VALID,0,VALID,91.9764,VALID,0,VALID,19.6332,VALID,150,VALID,0.427507,
2005-04-04, 02:12:00,VALID,917.776,VALID,0,VALID,93.2518,VALID,-0.0339617,VALID,19.5845,VALID,183,VALID,0.436498,
2005-04-04, 02:13:00,VALID,917.794,VALID,0,VALID,93.9601,VALID,0,VALID,19.546,VALID,187,VALID,0.365039,
2005-04-04, 02:14:00,VALID,917.827,VALID,0,VALID,94.5082,VALID,0,VALID,19.5395,VALID,184,VALID,0.279433,
2005-04-04, 02:15:00,VALID,917.848,VALID,0,VALID,94.8121,VALID,-0.0169808,VALID,19.5425,VALID,181,VALID,0.473722,
2005-04-04, 02:16:00,VALID,917.874,VALID,0,VALID,95.0092,VALID,-0.0169808,VALID,19.5358,VALID,178,VALID,0.531836,
2005-04-04, 02:17:00,VALID,917.875,VALID,0,VALID,95.3716,VALID,-0.0169808,VALID,19.5462,VALID,164,VALID,0.881669,
2005-04-04, 02:18:00,VALID,917.874,VALID,0,VALID,95.7226,VALID,-0.0169808,VALID,19.5229,VALID,160,VALID,0.734184,
2005-04-04, 02:19:00,VALID,917.878,VALID,0,VALID,95.9883,VALID,0.0169808,VALID,19.5001,VALID,160,VALID,0.727865,
2005-04-04, 02:20:00,VALID,917.854,VALID,0,VALID,96.3444,VALID,0,VALID,19.475,VALID,164,VALID,0.64234,
2005-04-04, 02:21:00,VALID,917.852,VALID,0,VALID,96.792,VALID,-0.0169808,VALID,19.4618,VALID,167,VALID,0.636914,
2005-04-04, 02:22:00,VALID,917.831,VALID,0,VALID,97.0781,VALID,0,VALID,19.4457,VALID,167,VALID,0.568314,
2005-04-04, 02:23:00,VALID,917.827,VALID,0,VALID,97.2129,VALID,-0.0169808,VALID,19.4265,VALID,166,VALID,0.480824,
2005-04-04, 02:24:00,VALID,917.815,VALID,0,VALID,97.2892,VALID,-0.0509425,VALID,19.4141,VALID,166,VALID,0.371652,
2005-04-04, 02:25:00,VALID,917.809,VALID,0,VALID,97.2065,VALID,-0.0509425,VALID,19.3875,VALID,166,VALID,0.332217,
2005-04-04, 02:26:00,VALID,917.799,VALID,0,VALID,96.9955,VALID,-0.0339617,VALID,19.3687,VALID,166,VALID,0.390625,
2005-04-04, 02:27:00,VALID,917.783,VALID,0,VALID,96.8721,VALID,0,VALID,19.3684,VALID,166,VALID,0.248365,
2005-04-04, 02:28:00,VALID,917.77,VALID,0,VALID,96.8416,VALID,-0.0339617,VALID,19.3682,VALID,166,VALID,0.251488,
2005-04-04, 02:29:00,VALID,917.756,VALID,0,VALID,96.909,VALID,-0.0169808,VALID,19.3783,VALID,166,VALID,0.0195313,
2005-04-04, 02:30:00,VALID,917.736,VALID,0,VALID,96.4321,VALID,-0.0169808,VALID,19.3684,VALID,166,VALID,0.0724927,
2005-04-04, 02:31:00,VALID,917.726,VALID,0,VALID,96.1384,VALID,-0.0339617,VALID,19.3848,VALID,166,VALID,0.0887784,
2005-04-04, 02:32:00,VALID,917.709,VALID,0,VALID,95.6844,VALID,-0.0169808,VALID,19.3719,VALID,166,VALID,0.229768,
2005-04-04, 02:33:00,VALID,917.715,VALID,0,VALID,95.3589,VALID,-0.0169808,VALID,19.3779,VALID,189,VALID,0.389535,
2005-04-04, 02:34:00,VALID,917.722,VALID,0,VALID,95.0397,VALID,-0.0679233,VALID,19.4014,VALID,193,VALID,0.357973,
2005-04-04, 02:35:00,VALID,917.73,VALID,0,VALID,94.142,VALID,-0.101885,VALID,19.3952,VALID,195,VALID,0.49814,
2005-04-04, 02:36:00,VALID,917.763,VALID,0,VALID,92.6389,VALID,-0.101885,VALID,19.4245,VALID,207,VALID,0.394531,
2005-04-04, 02:37:00,VALID,917.784,VALID,0,VALID,91.8009,VALID,-0.101885,VALID,19.4789,VALID,207,VALID,0.448828,
2005-04-04, 02:38:00,VALID,917.815,VALID,0,VALID,91.5161,VALID,-0.101885,VALID,19.5534,VALID,207,VALID,0.315476,
2005-04-04, 02:39:00,VALID,917.809,VALID,0,VALID,91.4869,VALID,-0.0849042,VALID,19.6049,VALID,207,VALID,0.428163,
2005-04-04, 02:40:00,VALID,917.823,VALID,0,VALID,91.4513,VALID,-0.101885,VALID,19.6376,VALID,198,VALID,0.495994,
2005-04-04, 02:41:00,VALID,917.819,VALID,0,VALID,90.9617,VALID,-0.0509425,VALID,19.6503,VALID,182,VALID,0.507011,
2005-04-04, 02:42:00,VALID,917.826,VALID,0,VALID,90.5204,VALID,-0.0849042,VALID,19.6667,VALID,182,VALID,0.631177,
2005-04-04, 02:43:00,VALID,917.824,VALID,0,VALID,90.2216,VALID,-0.0849042,VALID,19.6896,VALID,181,VALID,0.521802,
2005-04-04, 02:44:00,VALID,917.839,VALID,0,VALID,90.1275,VALID,-0.101885,VALID,19.699,VALID,182,VALID,0.55434,
2005-04-04, 02:45:00,VALID,917.844,VALID,0,VALID,90.6247,VALID,-0.0849042,VALID,19.7251,VALID,181,VALID,0.353981,
2005-04-04, 02:46:00,VALID,917.875,VALID,0,VALID,90.9668,VALID,-0.101885,VALID,19.7248,VALID,179,VALID,0.172763,
2005-04-04, 02:47:00,VALID,917.877,VALID,0,VALID,90.6692,VALID,-0.0849042,VALID,19.7218,VALID,179,VALID,0.112464,
2005-04-04, 02:48:00,VALID,917.866,VALID,0,VALID,90.8434,VALID,-0.101885,VALID,19.7216,VALID,179,VALID,0.152435,
2005-04-04, 02:49:00,VALID,917.837,VALID,0,VALID,91.024,VALID,-0.101885,VALID,19.7119,VALID,148,VALID,0.559956,
2005-04-04, 02:50:00,VALID,917.809,VALID,0,VALID,91.3165,VALID,-0.101885,VALID,19.6796,VALID,131,VALID,0.672828,
2005-04-04, 02:51:00,VALID,917.766,VALID,0,VALID,91.5072,VALID,-0.101885,VALID,19.6349,VALID,128,VALID,0.735828,
2005-04-04, 02:52:00,VALID,917.723,VALID,0,VALID,92.082,VALID,-0.101885,VALID,19.5698,VALID,121,VALID,0.819965,
2005-04-04, 02:53:00,VALID,917.669,VALID,0,VALID,93.2938,VALID,-0.0679233,VALID,19.5343,VALID,124,VALID,0.754542,
2005-04-04, 02:54:00,VALID,917.636,VALID,0,VALID,94.1038,VALID,-0.0849042,VALID,19.4792,VALID,121,VALID,0.783913,
2005-04-04, 02:55:00,VALID,917.582,VALID,0,VALID,94.5247,VALID,-0.135847,VALID,19.4347,VALID,120,VALID,0.685785,
2005-04-04, 02:56:00,VALID,917.56,VALID,0,VALID,94.9367,VALID,-0.101885,VALID,19.3798,VALID,118,VALID,0.801235,
2005-04-04, 02:57:00,VALID,917.537,VALID,0,VALID,94.98,VALID,-0.101885,VALID,19.3113,VALID,117,VALID,0.7859,
2005-04-04, 02:58:00,VALID,917.508,VALID,0,VALID,95.275,VALID,-0.0679233,VALID,19.2698,VALID,106,VALID,0.44779,
2005-04-04, 02:59:00,VALID,917.481,VALID,0,VALID,95.6615,VALID,-0.0849042,VALID,19.2375,VALID,91,VALID,0.488653,
2005-04-04, 03:00:00,VALID,917.466,VALID,0,VALID,95.2267,VALID,-0.118866,VALID,19.2025,VALID,89,VALID,0.863636,
2005-04-04, 03:01:00,VALID,917.429,VALID,0,VALID,94.7778,VALID,-0.0679233,VALID,19.124,VALID,94,VALID,0.939977,
2005-04-04, 03:02:00,VALID,917.414,VALID,0,VALID,94.8032,VALID,-0.0849042,VALID,19.095,VALID,97,VALID,1.02118,
2005-04-04, 03:03:00,VALID,917.4,VALID,0,VALID,94.9507,VALID,-0.118866,VALID,19.0756,VALID,102,VALID,0.900724,
2005-04-04, 03:04:00,VALID,917.399,VALID,0,VALID,95.0842,VALID,0,VALID,19.0781,VALID,110,VALID,0.839658,
2005-04-04, 03:05:00,VALID,917.403,VALID,0,VALID,95.205,VALID,0.0339617,VALID,19.0903,VALID,120,VALID,0.826172,
2005-04-04, 03:06:00,VALID,917.404,VALID,0,VALID,95.1465,VALID,0,VALID,19.1005,VALID,119,VALID,0.720526,
2005-04-04, 03:07:00,VALID,917.413,VALID,0,VALID,95.2012,VALID,0.0169808,VALID,19.0938,VALID,112,VALID,1.14099,
2005-04-04, 03:08:00,VALID,917.428,VALID,0,VALID,95.7226,VALID,0,VALID,19.0779,VALID,102,VALID,0.978237,
2005-04-04, 03:09:00,VALID,917.446,VALID,0,VALID,96.5135,VALID,0,VALID,19.0647,VALID,104,VALID,1.2282,
2005-04-04, 03:10:00,VALID,917.448,VALID,0,VALID,97.3451,VALID,0.0339617,VALID,19.062,VALID,98,VALID,1.26927,
2005-04-04, 03:11:00,VALID,917.452,VALID,0,VALID,97.8449,VALID,-0.0339617,VALID,19.0264,VALID,104,VALID,1.32515,
2005-04-04, 03:12:00,VALID,917.447,VALID,0,VALID,97.9542,VALID,0,VALID,18.9875,VALID,105,VALID,1.38858,
2005-04-04, 03:13:00,VALID,917.458,VALID,0,VALID,97.9237,VALID,0,VALID,18.9713,VALID,96,VALID,1.15143,
2005-04-04, 03:14:00,VALID,917.455,VALID,0,VALID,97.7254,VALID,0.0169808,VALID,18.9716,VALID,100,VALID,0.992365,
2005-04-04, 03:15:00,VALID,917.447,VALID,0,VALID,97.4049,VALID,0,VALID,18.9582,VALID,105,VALID,1.00762,
2005-04-04, 03:16:00,VALID,917.437,VALID,0,VALID,96.9408,VALID,0,VALID,18.9716,VALID,105,VALID,1.08022,
2005-04-04, 03:17:00,VALID,917.422,VALID,0,VALID,96.221,VALID,0,VALID,18.9817,VALID,110,VALID,1.1657,
2005-04-04, 03:18:00,VALID,917.406,VALID,0,VALID,95.9833,VALID,0,VALID,19.0168,VALID,114,VALID,1.04279,
2005-04-04, 03:19:00,VALID,917.4,VALID,0,VALID,95.6119,VALID,-0.0509425,VALID,19.0463,VALID,113,VALID,0.847155,
2005-04-04, 03:20:00,VALID,917.388,VALID,0,VALID,95.1453,VALID,-0.0849042,VALID,19.0761,VALID,110,VALID,1.19913,
2005-04-04, 03:21:00,VALID,917.368,VALID,0,VALID,94.5476,VALID,-0.101885,VALID,19.1113,VALID,110,VALID,0.963477,
2005-04-04, 03:22:00,VALID,917.373,VALID,0,VALID,94.142,VALID,-0.0849042,VALID,19.1404,VALID,111,VALID,1.11293,
2005-04-04, 03:23:00,VALID,917.381,VALID,0,VALID,93.646,VALID,-0.101885,VALID,19.1863,VALID,117,VALID,1.16707,
2005-04-04, 03:24:00,VALID,917.386,VALID,0,VALID,93.1234,VALID,-0.101885,VALID,19.2027,VALID,118,VALID,1.02024,
2005-04-04, 03:25:00,VALID,917.394,VALID,0,VALID,92.5982,VALID,-0.101885,VALID,19.2246,VALID,112,VALID,1.18197,
2005-04-04, 03:26:00,VALID,917.398,VALID,0,VALID,92.0807,VALID,-0.101885,VALID,19.2571,VALID,102,VALID,1.01799,
2005-04-04, 03:27:00,VALID,917.388,VALID,0,VALID,91.89,VALID,-0.0849042,VALID,19.2993,VALID,108,VALID,0.925576,
2005-04-04, 03:28:00,VALID,917.392,VALID,0,VALID,91.4589,VALID,-0.101885,VALID,19.3185,VALID,108,VALID,1.14785,
2005-04-04, 03:29:00,VALID,917.39,VALID,0,VALID,91.4525,VALID,-0.118866,VALID,19.3475,VALID,97,VALID,0.930246,
2005-04-04, 03:30:00,VALID,917.395,VALID,0,VALID,91.1016,VALID,-0.101885,VALID,19.3577,VALID,99,VALID,0.97516,
2005-04-04, 03:31:00,VALID,917.395,VALID,0,VALID,91.2669,VALID,-0.101885,VALID,19.3473,VALID,97,VALID,0.83327,
2005-04-04, 03:32:00,VALID,917.42,VALID,0,VALID,91.1613,VALID,-0.118866,VALID,19.3344,VALID,100,VALID,0.755766,
2005-04-04, 03:33:00,VALID,917.419,VALID,0,VALID,91.1473,VALID,-0.0849042,VALID,19.3244,VALID,103,VALID,0.776101,